| time (UTC) | temp C | wind direction | speed KPH | gust KPH | rain 1hr cm | rain 24hr cm | rain mn cm | humidity % | barometer mb |
| 20260507041204 | 15 | 122 | 8.0 | 16.1 | 0.00 | 0.00 | 0.00 | 84 | 1019.0 |
| 20260507040705 | 15 | 89 | 6.4 | 16.1 | 0.00 | 0.00 | 0.00 | 84 | 1019.0 |
| 20260507035204 | 16 | 103 | 6.4 | 20.9 | 0.00 | 0.00 | 0.00 | 83 | 1018.9 |
| 20260507034705 | 16 | 92 | 8.0 | 20.9 | 0.00 | 0.00 | 0.00 | 83 | 1018.8 |
| 20260507034204 | 16 | 95 | 8.0 | 14.5 | 0.00 | 0.00 | 0.00 | 82 | 1018.9 |
| 20260507033704 | 16 | 125 | 4.8 | 12.9 | 0.00 | 0.00 | 0.00 | 82 | 1018.7 |
| 20260507033204 | 16 | 107 | 4.8 | 14.5 | 0.00 | 0.00 | 0.00 | 83 | 1018.7 |
| 20260507032704 | 16 | 136 | 4.8 | 14.5 | 0.00 | 0.00 | 0.00 | 82 | 1018.6 |
| 20260507031704 | 16 | 101 | 4.8 | 17.7 | 0.00 | 0.00 | 0.00 | 81 | 1018.4 |
| 20260507031205 | 16 | 94 | 6.4 | 17.7 | 0.00 | 0.00 | 0.00 | 80 | 1018.3 |
| 20260507030704 | 17 | 108 | 8.0 | 17.7 | 0.00 | 0.00 | 0.00 | 79 | 1018.2 |
| 20260507030204 | 17 | 104 | 6.4 | 12.9 | 0.00 | 0.00 | 0.00 | 78 | 1018.2 |
| 20260507025704 | 17 | 128 | 4.8 | 12.9 | 0.00 | 0.00 | 0.00 | 78 | 1018.1 |
| 20260507025205 | 17 | 109 | 4.8 | 12.9 | 0.00 | 0.00 | 0.00 | 77 | 1018.0 |
| 20260507024704 | 17 | 142 | 6.4 | 12.9 | 0.00 | 0.00 | 0.00 | 77 | 1017.9 |
| 20260507023704 | 18 | 47 | 4.8 | 12.9 | 0.00 | 0.00 | 0.00 | 75 | 1017.8 |
| 20260507023204 | 18 | 111 | 4.8 | 12.9 | 0.00 | 0.00 | 0.00 | 75 | 1017.8 |
| 20260507022704 | 18 | 121 | 4.8 | 12.9 | 0.00 | 0.00 | 0.00 | 75 | 1017.8 |
| 20260507022204 | 18 | 117 | 4.8 | 12.9 | 0.00 | 0.00 | 0.00 | 74 | 1017.8 |
| 20260507021705 | 19 | 86 | 4.8 | 12.9 | 0.00 | 0.00 | 0.00 | 73 | 1017.8 |
| 20260507020205 | 20 | 88 | 4.8 | 16.1 | 0.00 | 0.00 | 0.00 | 71 | 1017.8 |
| 20260507015705 | 20 | 91 | 4.8 | 16.1 | 0.00 | 0.00 | 0.00 | 71 | 1017.8 |
| 20260507015204 | 20 | 71 | 4.8 | 14.5 | 0.00 | 0.00 | 0.00 | 69 | 1017.7 |
| 20260507014704 | 21 | 98 | 6.4 | 14.5 | 0.00 | 0.00 | 0.00 | 68 | 1017.7 |
| 20260507014206 | 21 | 85 | 6.4 | 14.5 | 0.00 | 0.00 | 0.00 | 65 | 1017.8 |
| 20260507013704 | 22 | 83 | 4.8 | 9.7 | 0.00 | 0.00 | 0.00 | 63 | 1017.8 |
| 20260507013204 | 23 | 123 | 3.2 | 6.4 | 0.00 | 0.00 | 0.00 | 61 | 1017.7 |
| 20260507012704 | 23 | 158 | 3.2 | 8.0 | 0.00 | 0.00 | 0.00 | 60 | 1017.8 |
| 20260507012204 | 23 | 200 | 4.8 | 8.0 | 0.00 | 0.00 | 0.00 | 59 | 1017.8 |
| 20260507011704 | 23 | 203 | 4.8 | 8.0 | 0.00 | 0.00 | 0.00 | 59 | 1017.7 |
| 20260507011204 | 23 | 171 | 4.8 | 8.0 | 0.00 | 0.00 | 0.00 | 58 | 1017.6 |
| 20260507010704 | 23 | 211 | 4.8 | 9.7 | 0.00 | 0.00 | 0.00 | 58 | 1017.7 |
| 20260507010205 | 23 | 154 | 4.8 | 11.3 | 0.00 | 0.00 | 0.00 | 59 | 1017.7 |
| 20260507005704 | 23 | 190 | 4.8 | 11.3 | 0.00 | 0.00 | 0.00 | 58 | 1017.8 |
| 20260507005204 | 23 | 218 | 4.8 | 11.3 | 0.00 | 0.00 | 0.00 | 60 | 1017.6 |
| 20260507004704 | 23 | 193 | 4.8 | 11.3 | 0.00 | 0.00 | 0.00 | 59 | 1017.7 |
| 20260507004205 | 23 | 208 | 4.8 | 11.3 | 0.00 | 0.00 | 0.00 | 60 | 1017.6 |
| 20260507003706 | 23 | 126 | 4.8 | 11.3 | 0.00 | 0.00 | 0.00 | 60 | 1017.6 |
| 20260507003204 | 23 | 198 | 4.8 | 11.3 | 0.00 | 0.00 | 0.00 | 61 | 1017.6 |
| 20260507002704 | 23 | 190 | 4.8 | 11.3 | 0.00 | 0.00 | 0.00 | 62 | 1017.7 |
| 20260507001704 | 23 | 180 | 6.4 | 12.9 | 0.00 | 0.00 | 0.00 | 61 | 1017.7 |
| 20260507001204 | 23 | 148 | 6.4 | 14.5 | 0.00 | 0.00 | 0.00 | 60 | 1017.6 |
| 20260507000705 | 23 | 196 | 8.0 | 14.5 | 0.00 | 0.00 | 0.00 | 58 | 1017.6 |
| 20260507000212 | 23 | 193 | 8.0 | 14.5 | 0.00 | 0.00 | 0.00 | 59 | 1017.7 |
| 20260506235205 | 23 | 168 | 8.0 | 14.5 | 0.00 | 0.00 | 0.00 | 60 | 1017.7 |
| 20260506234705 | 23 | 212 | 8.0 | 14.5 | 0.00 | 0.00 | 0.00 | 58 | 1017.7 |
| 20260506233704 | 24 | 215 | 4.8 | 14.5 | 0.00 | 0.00 | 0.00 | 58 | 1017.6 |
| 20260506233205 | 24 | 232 | 4.8 | 14.5 | 0.00 | 0.00 | 0.00 | 57 | 1017.7 |
| 20260506232705 | 23 | 194 | 4.8 | 16.1 | 0.00 | 0.00 | 0.00 | 58 | 1017.8 |
| 20260506231704 | 23 | 217 | 8.0 | 16.1 | 0.00 | 0.00 | 0.00 | 57 | 1017.8 |
| 20260506231205 | 23 | 202 | 8.0 | 16.1 | 0.00 | 0.00 | 0.00 | 58 | 1017.9 |
| 20260506230704 | 23 | 183 | 8.0 | 16.1 | 0.00 | 0.00 | 0.00 | 58 | 1018.0 |
| 20260506225705 | 23 | 244 | 8.0 | 19.3 | 0.00 | 0.00 | 0.00 | 56 | 1018.0 |
| 20260506225204 | 23 | 202 | 6.4 | 19.3 | 0.00 | 0.00 | 0.00 | 57 | 1018.1 |
| 20260506224705 | 23 | 232 | 6.4 | 17.7 | 0.00 | 0.00 | 0.00 | 58 | 1018.3 |
| 20260506224205 | 23 | 200 | 9.7 | 17.7 | 0.00 | 0.00 | 0.00 | 58 | 1018.3 |
| 20260506223704 | 23 | 242 | 8.0 | 19.3 | 0.00 | 0.00 | 0.00 | 57 | 1018.3 |
| 20260506222704 | 23 | 250 | 9.7 | 19.3 | 0.00 | 0.00 | 0.00 | 57 | 1018.4 |
| 20260506222205 | 23 | 188 | 9.7 | 16.1 | 0.00 | 0.00 | 0.00 | 56 | 1018.4 |
| 20260506221705 | 23 | 256 | 8.0 | 20.9 | 0.00 | 0.00 | 0.00 | 56 | 1018.6 |
| 20260506221206 | 23 | 227 | 9.7 | 20.9 | 0.00 | 0.00 | 0.00 | 58 | 1018.6 |
| 20260506220706 | 23 | 256 | 8.0 | 20.9 | 0.00 | 0.00 | 0.00 | 57 | 1018.7 |
| 20260506215704 | 23 | 209 | 9.7 | 19.3 | 0.00 | 0.00 | 0.00 | 58 | 1018.9 |
| 20260506215204 | 22 | 243 | 9.7 | 17.7 | 0.00 | 0.00 | 0.00 | 59 | 1018.9 |
| 20260506214704 | 23 | 203 | 9.7 | 17.7 | 0.00 | 0.00 | 0.00 | 58 | 1018.9 |
| 20260506214204 | 23 | 177 | 8.0 | 17.7 | 0.00 | 0.00 | 0.00 | 58 | 1019.1 |
| 20260506213704 | 23 | 262 | 6.4 | 17.7 | 0.00 | 0.00 | 0.00 | 57 | 1019.1 |
| 20260506213204 | 23 | 211 | 8.0 | 19.3 | 0.00 | 0.00 | 0.00 | 59 | 1019.1 |
| 20260506212205 | 23 | 227 | 9.7 | 20.9 | 0.00 | 0.00 | 0.00 | 59 | 1019.2 |
| 20260506211706 | 22 | 269 | 11.3 | 19.3 | 0.00 | 0.00 | 0.00 | 60 | 1019.3 |
| 20260506211204 | 22 | 252 | 11.3 | 19.3 | 0.00 | 0.00 | 0.00 | 59 | 1019.3 |
| 20260506210704 | 22 | 225 | 9.7 | 19.3 | 0.00 | 0.00 | 0.00 | 60 | 1019.3 |
| 20260506210205 | 22 | 232 | 8.0 | 19.3 | 0.00 | 0.00 | 0.00 | 60 | 1019.3 |
| 20260506205204 | 22 | 198 | 9.7 | 19.3 | 0.00 | 0.00 | 0.00 | 61 | 1019.3 |
| 20260506204704 | 22 | 200 | 9.7 | 19.3 | 0.00 | 0.00 | 0.00 | 61 | 1019.4 |
| 20260506203705 | 21 | 223 | 9.7 | 19.3 | 0.00 | 0.00 | 0.00 | 61 | 1019.6 |
| 20260506202704 | 22 | 244 | 8.0 | 16.1 | 0.00 | 0.00 | 0.00 | 61 | 1019.6 |
| 20260506202204 | 21 | 307 | 8.0 | 17.7 | 0.00 | 0.00 | 0.00 | 62 | 1019.7 |
| 20260506201705 | 21 | 258 | 9.7 | 19.3 | 0.00 | 0.00 | 0.00 | 63 | 1019.7 |
| 20260506201206 | 21 | 223 | 9.7 | 19.3 | 0.00 | 0.00 | 0.00 | 62 | 1019.7 |
| 20260506200704 | 21 | 196 | 8.0 | 17.7 | 0.00 | 0.00 | 0.00 | 61 | 1019.9 |
| 20260506200206 | 21 | 233 | 8.0 | 17.7 | 0.00 | 0.00 | 0.00 | 62 | 1019.9 |
| 20260506195205 | 20 | 196 | 8.0 | 14.5 | 0.00 | 0.00 | 0.00 | 64 | 1020.0 |
| 20260506194704 | 20 | 208 | 6.4 | 14.5 | 0.00 | 0.00 | 0.00 | 63 | 1019.9 |
| 20260506194205 | 20 | 175 | 6.4 | 14.5 | 0.00 | 0.00 | 0.00 | 64 | 1019.9 |
| 20260506193704 | 20 | 194 | 6.4 | 16.1 | 0.00 | 0.00 | 0.00 | 65 | 1020.1 |
| 20260506193205 | 20 | 196 | 8.0 | 16.1 | 0.00 | 0.00 | 0.00 | 64 | 1020.1 |
| 20260506192704 | 20 | 141 | 8.0 | 16.1 | 0.00 | 0.00 | 0.00 | 66 | 1020.2 |
| 20260506192205 | 20 | 204 | 8.0 | 16.1 | 0.00 | 0.00 | 0.00 | 66 | 1020.2 |
| 20260506191705 | 19 | 157 | 8.0 | 16.1 | 0.00 | 0.00 | 0.00 | 67 | 1020.2 |
| 20260506191204 | 19 | 190 | 8.0 | 14.5 | 0.00 | 0.00 | 0.00 | 67 | 1020.2 |
| 20260506190204 | 19 | 208 | 6.4 | 14.5 | 0.00 | 0.00 | 0.00 | 70 | 1020.3 |
| 20260506185204 | 18 | 161 | 9.7 | 14.5 | 0.00 | 0.00 | 0.00 | 70 | 1020.3 |
| 20260506184704 | 18 | 193 | 9.7 | 14.5 | 0.00 | 0.00 | 0.00 | 71 | 1020.4 |
| 20260506184205 | 18 | 205 | 8.0 | 17.7 | 0.00 | 0.00 | 0.00 | 71 | 1020.4 |
| 20260506183705 | 18 | 219 | 8.0 | 17.7 | 0.00 | 0.00 | 0.00 | 72 | 1020.3 |
| 20260506183205 | 17 | 210 | 9.7 | 17.7 | 0.00 | 0.00 | 0.00 | 73 | 1020.4 |
| 20260506182705 | 17 | 224 | 9.7 | 16.1 | 0.00 | 0.00 | 0.00 | 73 | 1020.5 |
| 20260506182204 | 17 | 196 | 9.7 | 16.1 | 0.00 | 0.00 | 0.00 | 73 | 1020.5 |
| 20260506181705 | 17 | 192 | 9.7 | 17.7 | 0.00 | 0.00 | 0.00 | 73 | 1020.6 |
| 20260506181204 | 17 | 191 | 9.7 | 19.3 | 0.00 | 0.00 | 0.00 | 74 | 1020.6 |
| 20260506180706 | 17 | 202 | 11.3 | 19.3 | 0.00 | 0.00 | 0.00 | 75 | 1020.5 |
| 20260506180204 | 17 | 198 | 11.3 | 17.7 | 0.00 | 0.00 | 0.00 | 75 | 1020.6 |
| 20260506175704 | 17 | 182 | 9.7 | 17.7 | 0.00 | 0.00 | 0.00 | 75 | 1020.6 |
| 20260506175204 | 17 | 188 | 9.7 | 16.1 | 0.00 | 0.00 | 0.00 | 75 | 1020.6 |
| 20260506174705 | 17 | 209 | 9.7 | 14.5 | 0.00 | 0.00 | 0.00 | 74 | 1020.6 |
| 20260506174205 | 17 | 225 | 8.0 | 14.5 | 0.00 | 0.00 | 0.00 | 74 | 1020.6 |
| 20260506173706 | 17 | 198 | 6.4 | 16.1 | 0.00 | 0.00 | 0.00 | 75 | 1020.5 |
| 20260506173204 | 17 | 209 | 6.4 | 16.1 | 0.00 | 0.00 | 0.00 | 75 | 1020.6 |
| 20260506172704 | 17 | 225 | 6.4 | 12.9 | 0.00 | 0.00 | 0.00 | 75 | 1020.5 |
| 20260506172205 | 17 | 267 | 6.4 | 12.9 | 0.00 | 0.00 | 0.00 | 76 | 1020.5 |
| 20260506171704 | 17 | 210 | 6.4 | 11.3 | 0.00 | 0.00 | 0.00 | 77 | 1020.5 |
| 20260506171204 | 17 | 259 | 6.4 | 12.9 | 0.00 | 0.00 | 0.00 | 77 | 1020.5 |
| 20260506170704 | 17 | 263 | 6.4 | 12.9 | 0.00 | 0.00 | 0.00 | 77 | 1020.6 |
| 20260506170205 | 17 | 160 | 6.4 | 12.9 | 0.00 | 0.00 | 0.00 | 77 | 1020.6 |
| 20260506165204 | 17 | 197 | 6.4 | 11.3 | 0.00 | 0.00 | 0.00 | 77 | 1020.5 |
| 20260506164705 | 17 | 204 | 4.8 | 11.3 | 0.00 | 0.00 | 0.00 | 78 | 1020.5 |
| 20260506163706 | 17 | 175 | 4.8 | 11.3 | 0.00 | 0.00 | 0.00 | 79 | 1020.6 |
| 20260506163204 | 17 | 196 | 4.8 | 11.3 | 0.00 | 0.00 | 0.00 | 79 | 1020.6 |
| 20260506162705 | 16 | 180 | 4.8 | 9.7 | 0.00 | 0.00 | 0.00 | 79 | 1020.6 |
| 20260506162204 | 16 | 200 | 4.8 | 9.7 | 0.00 | 0.00 | 0.00 | 79 | 1020.6 |
| 20260506161704 | 16 | 160 | 3.2 | 9.7 | 0.00 | 0.00 | 0.00 | 79 | 1020.6 |
| 20260506161204 | 16 | 176 | 3.2 | 6.4 | 0.00 | 0.00 | 0.00 | 80 | 1020.6 |
| 20260506160704 | 16 | 203 | 3.2 | 8.0 | 0.00 | 0.00 | 0.00 | 80 | 1020.6 |
| 20260506155705 | 16 | 207 | 3.2 | 8.0 | 0.00 | 0.00 | 0.00 | 81 | 1020.6 |
| 20260506155205 | 16 | 181 | 3.2 | 8.0 | 0.00 | 0.00 | 0.00 | 82 | 1020.6 |
| 20260506154704 | 16 | 119 | 4.8 | 8.0 | 0.00 | 0.00 | 0.00 | 82 | 1020.7 |
| 20260506154215 | 16 | 133 | 3.2 | 6.4 | 0.00 | 0.00 | 0.00 | 83 | 1020.7 |
| 20260506153705 | 16 | 126 | 3.2 | 8.0 | 0.00 | 0.00 | 0.00 | 83 | 1020.7 |
| 20260506153205 | 16 | 170 | 3.2 | 8.0 | 0.00 | 0.00 | 0.00 | 85 | 1020.6 |
| 20260506152704 | 15 | 124 | 3.2 | 8.0 | 0.00 | 0.00 | 0.00 | 86 | 1020.6 |
| 20260506152205 | 15 | 121 | 1.6 | 8.0 | 0.00 | 0.00 | 0.00 | 86 | 1020.6 |
| 20260506151706 | 15 | 130 | 0.0 | 8.0 | 0.00 | 0.00 | 0.00 | 88 | 1020.6 |
| 20260506151204 | 15 | 150 | 0.0 | 0.0 | 0.00 | 0.00 | 0.00 | 88 | 1020.6 |
| 20260506150205 | 14 | 41 | 0.0 | 0.0 | 0.00 | 0.00 | 0.00 | 90 | 1020.6 |
| 20260506145704 | 14 | 41 | 0.0 | 0.0 | 0.00 | 0.00 | 0.00 | 90 | 1020.7 |
| 20260506145205 | 14 | 5 | 0.0 | 0.0 | 0.00 | 0.00 | 0.00 | 90 | 1020.8 |
| 20260506144706 | 13 | 5 | 0.0 | 0.0 | 0.00 | 0.00 | 0.00 | 90 | 1020.8 |
| 20260506144204 | 13 | 5 | 0.0 | 0.0 | 0.00 | 0.00 | 0.00 | 90 | 1020.8 |
| 20260506143704 | 13 | 5 | 0.0 | 0.0 | 0.00 | 0.00 | 0.00 | 91 | 1020.8 |
| 20260506143204 | 13 | 5 | 0.0 | 0.0 | 0.00 | 0.00 | 0.00 | 91 | 1020.8 |
| 20260506142704 | 13 | 5 | 0.0 | 0.0 | 0.00 | 0.00 | 0.00 | 90 | 1020.8 |
| 20260506142204 | 13 | 5 | 0.0 | 0.0 | 0.00 | 0.00 | 0.00 | 90 | 1020.8 |
| 20260506141705 | 13 | 5 | 0.0 | 0.0 | 0.00 | 0.00 | 0.00 | 91 | 1020.6 |
| 20260506140205 | 13 | 5 | 0.0 | 0.0 | 0.00 | 0.00 | 0.00 | 90 | 1020.5 |
| 20260506135704 | 13 | 5 | 0.0 | 0.0 | 0.00 | 0.00 | 0.00 | 90 | 1020.5 |
| 20260506135205 | 12 | 5 | 0.0 | 0.0 | 0.00 | 0.00 | 0.00 | 90 | 1020.4 |
| 20260506134706 | 12 | 5 | 0.0 | 0.0 | 0.00 | 0.00 | 0.00 | 91 | 1020.3 |
| 20260506133704 | 12 | 5 | 0.0 | 0.0 | 0.00 | 0.00 | 0.00 | 91 | 1020.2 |
| 20260506133204 | 12 | 5 | 0.0 | 0.0 | 0.00 | 0.00 | 0.00 | 91 | 1020.1 |
| 20260506132704 | 12 | 5 | 0.0 | 0.0 | 0.00 | 0.00 | 0.00 | 90 | 1020.1 |
| 20260506132204 | 12 | 5 | 0.0 | 0.0 | 0.00 | 0.00 | 0.00 | 90 | 1020.1 |
| 20260506131705 | 12 | 5 | 0.0 | 0.0 | 0.00 | 0.00 | 0.00 | 90 | 1019.9 |
| 20260506131204 | 12 | 5 | 0.0 | 0.0 | 0.00 | 0.00 | 0.00 | 90 | 1019.8 |
| 20260506130705 | 12 | 24 | 0.0 | 0.0 | 0.00 | 0.00 | 0.00 | 91 | 1019.9 |
| 20260506124705 | 12 | 311 | 0.0 | 0.0 | 0.00 | 0.00 | 0.00 | 91 | 1019.8 |
| 20260506123705 | 12 | 311 | 0.0 | 0.0 | 0.00 | 0.00 | 0.00 | 91 | 1019.8 |
| 20260506123205 | 12 | 311 | 0.0 | 0.0 | 0.00 | 0.00 | 0.00 | 91 | 1019.7 |
| 20260506122705 | 12 | 311 | 0.0 | 0.0 | 0.00 | 0.00 | 0.00 | 91 | 1019.7 |
| 20260506121704 | 12 | 311 | 0.0 | 0.0 | 0.00 | 0.00 | 0.00 | 91 | 1019.7 |
| 20260506120705 | 12 | 311 | 0.0 | 0.0 | 0.00 | 0.00 | 0.00 | 91 | 1019.6 |
| 20260506120204 | 12 | 311 | 0.0 | 0.0 | 0.00 | 0.00 | 0.00 | 91 | 1019.6 |
| 20260506115705 | 12 | 311 | 0.0 | 0.0 | 0.00 | 0.00 | 0.00 | 91 | 1019.5 |
| 20260506115205 | 12 | 311 | 0.0 | 0.0 | 0.00 | 0.00 | 0.00 | 91 | 1019.5 |
| 20260506114705 | 12 | 311 | 0.0 | 0.0 | 0.00 | 0.00 | 0.00 | 91 | 1019.4 |
| 20260506114206 | 12 | 311 | 0.0 | 0.0 | 0.00 | 0.00 | 0.00 | 91 | 1019.4 |
| 20260506113705 | 12 | 311 | 0.0 | 0.0 | 0.00 | 0.00 | 0.00 | 91 | 1019.4 |
| 20260506113204 | 12 | 311 | 0.0 | 0.0 | 0.00 | 0.00 | 0.00 | 91 | 1019.4 |
| 20260506112704 | 12 | 311 | 0.0 | 0.0 | 0.00 | 0.00 | 0.00 | 90 | 1019.5 |
| 20260506111705 | 12 | 311 | 0.0 | 0.0 | 0.00 | 0.00 | 0.00 | 90 | 1019.5 |
| 20260506111206 | 12 | 311 | 0.0 | 0.0 | 0.00 | 0.00 | 0.00 | 90 | 1019.4 |
| 20260506110705 | 12 | 311 | 0.0 | 0.0 | 0.00 | 0.00 | 0.00 | 90 | 1019.4 |
| 20260506110204 | 12 | 311 | 0.0 | 0.0 | 0.00 | 0.00 | 0.00 | 90 | 1019.3 |
| 20260506105704 | 12 | 311 | 0.0 | 0.0 | 0.00 | 0.00 | 0.00 | 90 | 1019.4 |
| 20260506104704 | 12 | 311 | 0.0 | 0.0 | 0.00 | 0.00 | 0.00 | 90 | 1019.4 |
| 20260506104204 | 12 | 311 | 0.0 | 0.0 | 0.00 | 0.00 | 0.00 | 90 | 1019.3 |
| 20260506103704 | 12 | 311 | 0.0 | 4.8 | 0.00 | 0.00 | 0.00 | 90 | 1019.3 |
| 20260506103206 | 12 | 311 | 0.0 | 4.8 | 0.00 | 0.00 | 0.00 | 90 | 1019.4 |
| 20260506102705 | 12 | 311 | 1.6 | 4.8 | 0.00 | 0.00 | 0.00 | 90 | 1019.3 |
| 20260506102204 | 12 | 308 | 1.6 | 3.2 | 0.00 | 0.00 | 0.00 | 90 | 1019.4 |
| 20260506101704 | 12 | 19 | 0.0 | 3.2 | 0.00 | 0.00 | 0.00 | 90 | 1019.4 |
| 20260506101204 | 12 | 19 | 0.0 | 3.2 | 0.00 | 0.00 | 0.00 | 90 | 1019.3 |
| 20260506100704 | 12 | 19 | 0.0 | 3.2 | 0.00 | 0.00 | 0.00 | 90 | 1019.3 |
| 20260506100205 | 12 | 19 | 0.0 | 3.2 | 0.00 | 0.00 | 0.00 | 90 | 1019.3 |
| 20260506095704 | 12 | 19 | 0.0 | 4.8 | 0.00 | 0.00 | 0.00 | 90 | 1019.3 |
| 20260506095204 | 12 | 19 | 0.0 | 4.8 | 0.00 | 0.00 | 0.00 | 90 | 1019.4 |
| 20260506094705 | 12 | 19 | 1.6 | 4.8 | 0.00 | 0.00 | 0.00 | 90 | 1019.3 |
| 20260506094205 | 12 | 19 | 1.6 | 4.8 | 0.00 | 0.00 | 0.00 | 89 | 1019.3 |
| 20260506093704 | 12 | 19 | 1.6 | 3.2 | 0.00 | 0.00 | 0.00 | 89 | 1019.4 |
| 20260506093205 | 12 | 322 | 1.6 | 3.2 | 0.00 | 0.00 | 0.00 | 89 | 1019.5 |
| 20260506092704 | 12 | 322 | 1.6 | 3.2 | 0.00 | 0.00 | 0.00 | 89 | 1019.5 |
| 20260506092205 | 12 | 322 | 0.0 | 3.2 | 0.00 | 0.00 | 0.00 | 89 | 1019.5 |
| 20260506091704 | 12 | 322 | 0.0 | 3.2 | 0.00 | 0.00 | 0.00 | 89 | 1019.5 |
| 20260506090704 | 12 | 322 | 0.0 | 3.2 | 0.00 | 0.00 | 0.00 | 88 | 1019.3 |
| 20260506085704 | 12 | 322 | 0.0 | 0.0 | 0.00 | 0.00 | 0.00 | 88 | 1019.3 |
| 20260506085205 | 12 | 322 | 0.0 | 0.0 | 0.00 | 0.00 | 0.00 | 88 | 1019.3 |
| 20260506084704 | 12 | 322 | 0.0 | 0.0 | 0.00 | 0.00 | 0.00 | 87 | 1019.2 |
| 20260506084204 | 13 | 322 | 0.0 | 0.0 | 0.00 | 0.00 | 0.00 | 87 | 1019.2 |
| 20260506083204 | 13 | 322 | 0.0 | 0.0 | 0.00 | 0.00 | 0.00 | 87 | 1019.3 |
| 20260506082705 | 13 | 322 | 0.0 | 0.0 | 0.00 | 0.00 | 0.00 | 87 | 1019.2 |
| 20260506082204 | 13 | 322 | 0.0 | 0.0 | 0.00 | 0.00 | 0.00 | 87 | 1019.2 |
| 20260506081704 | 13 | 322 | 0.0 | 0.0 | 0.00 | 0.00 | 0.00 | 86 | 1019.2 |
| 20260506081204 | 13 | 322 | 0.0 | 0.0 | 0.00 | 0.00 | 0.00 | 86 | 1019.2 |
| 20260506080705 | 13 | 322 | 0.0 | 0.0 | 0.00 | 0.00 | 0.00 | 86 | 1019.2 |
| 20260506080205 | 13 | 322 | 0.0 | 0.0 | 0.00 | 0.00 | 0.00 | 86 | 1019.2 |
| 20260506073205 | 13 | 322 | 0.0 | 1.6 | 0.00 | 0.00 | 0.00 | 85 | 1019.0 |
| 20260506072704 | 14 | 322 | 0.0 | 3.2 | 0.00 | 0.00 | 0.00 | 85 | 1018.9 |
| 20260506072205 | 14 | 322 | 0.0 | 3.2 | 0.00 | 0.00 | 0.00 | 85 | 1019.0 |
| 20260506071705 | 14 | 322 | 0.0 | 3.2 | 0.00 | 0.00 | 0.00 | 85 | 1019.0 |
| 20260506071204 | 14 | 322 | 0.0 | 3.2 | 0.00 | 0.00 | 0.00 | 84 | 1018.9 |
| 20260506070705 | 14 | 322 | 0.0 | 1.6 | 0.00 | 0.00 | 0.00 | 84 | 1018.9 |
| 20260506070205 | 14 | 322 | 0.0 | 1.6 | 0.00 | 0.00 | 0.00 | 84 | 1018.8 |
| 20260506062205 | 15 | 322 | 0.0 | 0.0 | 0.00 | 0.00 | 0.00 | 82 | 1018.6 |
| 20260506061204 | 14 | 322 | 0.0 | 0.0 | 0.00 | 0.00 | 0.00 | 81 | 1018.5 |
| 20260506060704 | 14 | 322 | 0.0 | 0.0 | 0.00 | 0.00 | 0.00 | 81 | 1018.5 |
| 20260506060205 | 14 | 322 | 0.0 | 0.0 | 0.00 | 0.00 | 0.00 | 81 | 1018.5 |
| 20260506051206 | 15 | 322 | 0.0 | 0.0 | 0.00 | 0.00 | 0.00 | 82 | 1018.3 |
| 20260506050704 | 15 | 322 | 0.0 | 0.0 | 0.00 | 0.00 | 0.00 | 82 | 1018.3 |
| 20260506050206 | 14 | 322 | 0.0 | 0.0 | 0.00 | 0.00 | 0.00 | 82 | 1018.3 |
| 20260506043705 | 15 | 322 | 0.0 | 3.2 | 0.00 | 0.00 | 0.00 | 82 | 1018.0 |
| 20260506043204 | 15 | 322 | 0.0 | 3.2 | 0.00 | 0.00 | 0.00 | 82 | 1017.9 |
| 20260506042705 | 15 | 315 | 0.0 | 3.2 | 0.00 | 0.00 | 0.00 | 82 | 1017.9 |
| 20260506042205 | 15 | 315 | 0.0 | 4.8 | 0.00 | 0.00 | 0.00 | 82 | 1017.8 |